Wind_Speed
19 18 17 18 17 15 15 16 16 18 21 23 22 21 21 21 20 20 22 22 22 22 21 21 21 21 21 22 22 22 22 22 23 23 23 23 23 23 24 24 24 24 23 23
20 19 19 19 18 16 17 19 19 20 22 23 22 22 23 22 21 22 22 23 23 22 22 23 22 23 23 23 23 23 24 24 24 24 24 24 24 24 25 25 26 25 25 25
21 19 19 20 18 18 18 19 19 20 22 22 21 22 24 24 23 23 23 23 23 24 24 24 24 24 23 23 24 24 25 25 25 25 25 25 26 26 26 26 26 26 26 26
21 21 22 20 20 19 19 20 21 22 24 24 24 25 25 25 25 25 24 24 24 24 25 25 24 24 24 25 25 25 25 25 25 26 26 26 27 27 27 27 27 27 27 27
22 22 21 19 21 21 21 21 22 22 24 24 24 25 25 25 27 26 25 24 24 25 25 25 24 25 25 26 26 26 26 26 26 27 27 28 28 28 28 28 28 28 28 28
23 22 20 20 21 21 21 23 24 24 24 24 25 26 26 26 28 26 25 25 26 26 25 25 26 26 26 26 27 27 26 26 27 27 28 28 28 28 28 28 28 28 28 28
23 22 21 22 23 22 22 24 24 24 24 25 26 27 26 26 26 26 26 26 26 25 25 26 27 27 27 27 27 27 27 27 28 28 29 29 29 29 28 28 28 29 28 28
24 23 24 24 24 23 23 24 24 25 26 26 26 27 26 26 26 26 26 26 26 26 26 27 27 27 28 28 28 28 27 27 28 28 29 29 29 29 29 28 29 29 28 27
25 26 27 25 25 25 26 26 26 26 26 26 26 26 26 25 25 26 26 27 27 26 27 27 28 28 28 28 27 27 27 27 28 28 28 28 28 28 29 29 28 27 27 26
27 28 29 28 27 27 27 27 26 26 26 26 26 26 26 26 25 26 26 27 26 27 27 28 28 27 27 28 28 27 28 28 28 28 28 27 27 28 28 27 27 27 27 27
27 28 28 28 29 28 28 27 26 26 26 26 27 27 26 27 26 26 26 27 27 27 28 29 28 27 27 28 28 28 28 28 27 27 26 27 27 27 27 27 27 27 28 28
28 28 28 28 29 29 28 27 26 26 25 25 26 26 25 25 25 26 26 26 26 27 27 27 27 27 27 28 28 28 28 28 27 27 27 27 27 27 27 27 27 27 28 28
30 29 28 29 29 29 28 27 27 27 27 27 26 25 25 26 26 26 26 26 27 27 26 27 28 27 27 28 28 29 28 28 28 28 28 28 28 28 28 27 28 28 28 28
32 31 30 30 30 29 29 28 28 28 28 28 27 26 26 27 27 27 27 26 27 27 26 27 28 29 28 28 28 28 29 29 29 29 29 29 29 29 29 28 28 28 28 29
32 32 32 31 31 30 29 29 29 29 29 28 27 26 26 27 27 27 26 26 26 26 26 26 27 28 28 28 28 28 29 29 30 29 29 29 29 29 29 28 28 28 29 29
32 31 31 31 30 30 29 29 29 29 28 27 27 26 26 26 27 27 26 26 25 25 26 27 27 27 28 28 28 28 28 29 29 29 29 29 29 29 28 29 29 29 29 29
30 30 30 30 30 29 29 29 28 28 27 26 26 26 26 26 27 27 26 26 25 25 26 27 27 27 27 28 29 29 29 28 28 28 27 27 27 27 28 28 29 29 29 28
30 30 30 30 29 29 29 29 28 28 28 27 27 27 27 27 27 27 27 27 26 26 27 27 27 28 28 29 29 29 28 28 28 27 27 27 27 27 28 28 29 29 28 28
31 30 30 30 29 29 29 29 29 29 29 28 28 27 27 28 27 27 27 27 26 26 27 27 27 27 28 28 28 28 29 28 27 27 27 27 27 28 28 29 28 28 28 27
30 29 29 29 29 29 29 29 29 29 29 29 29 27 26 26 26 27 27 27 26 26 26 26 27 27 28 28 28 29 28 27 27 27 27 27 27 28 28 28 28 27 27 27
29 29 29 29 29 29 29 29 28 28 28 27 27 26 26 26 26 26 25 25 26 26 26 26 26 27 28 28 28 29 28 28 27 27 27 27 27 28 28 28 27 27 27 27
28 28 28 28 28 28 28 28 28 27 27 26 25 25 26 26 26 26 26 26 27 26 26 27 28 28 28 28 28 28 27 27 27 27 27 27 27 27 27 27 27 27 27 27
27 27 27 27 27 27 28 27 27 27 26 26 26 26 26 26 26 26 27 28 28 27 27 28 28 28 27 28 27 26 26 26 26 27 26 26 26 26 26 27 27 27 26 26
26 26 26 26 26 27 26 26 26 27 27 27 27 27 27 27 27 28 28 28 28 28 27 27 27 26 26 26 26 26 26 26 26 25 25 25 25 26 26 27 27 26 26 25
25 25 25 25 26 26 26 26 26 26 26 27 27 28 28 28 28 28 28 28 28 27 27 27 27 26 25 25 25 25 25 25 25 25 25 25 25 25 26 26 26 26 26 25
25 25 24 25 25 25 25 25 26 26 27 27 28 28 28 27 28 28 28 28 28 27 27 27 26 25 25 24 25 25 26 25 25 25 25 24 25 25 26 25 25 25 25 25
25 24 24 24 24 24 24 25 26 26 26 26 27 27 27 27 28 28 27 27 27 26 25 25 25 24 24 24 25 24 24 24 24 24 24 24 24 25 25 25 25 25 24 24
Wind_Direction
241 245 251 258 261 261 263 264 268 269 272 278 287 294 291 293 294 296 299 300 300 299 299 303 306 306 307 309 310 312 313 313 313 312 311 311 313 313 313 313 313 313 311 309
243 247 248 254 257 254 259 264 268 272 276 279 285 290 290 292 294 296 297 297 300 302 301 303 303 304 303 304 307 309 310 311 311 310 309 309 308 311 312 311 313 312 311 309
248 251 252 253 254 255 257 265 268 271 275 279 286 289 291 293 294 295 296 296 297 300 302 302 302 302 301 302 304 307 308 309 309 308 307 306 306 307 308 309 310 311 311 309
252 250 247 249 256 259 262 265 268 272 278 281 284 288 288 290 293 294 295 296 296 297 299 300 301 300 302 303 303 304 305 307 308 307 306 305 305 306 307 306 307 308 309 309
250 255 253 255 260 262 264 268 268 270 276 281 281 283 285 288 291 292 292 292 294 295 297 299 298 299 301 303 304 304 305 306 306 306 306 305 306 306 306 306 306 307 308 309
249 251 250 254 262 266 270 271 271 272 276 279 279 282 284 287 289 290 292 292 293 294 295 296 297 298 300 302 303 303 303 304 305 306 306 306 306 305 305 305 305 306 307 307
249 250 252 254 259 266 268 270 272 275 278 280 283 283 285 286 288 289 291 292 292 294 295 295 296 298 299 301 302 303 304 304 304 305 305 305 305 304 304 305 305 306 306 306
252 249 249 256 261 263 268 271 273 277 280 283 284 284 286 288 289 288 288 289 290 291 293 295 295 296 298 300 301 301 302 304 304 304 304 304 303 303 303 302 303 304 304 305
254 254 255 254 258 265 268 270 272 277 281 283 283 283 285 287 287 285 286 288 289 290 292 293 294 296 298 300 301 300 301 303 304 304 305 304 303 303 303 303 303 304 304 305
252 253 255 258 261 264 269 270 272 276 279 279 281 283 285 286 286 285 286 286 286 289 292 293 294 294 297 299 300 301 300 301 303 304 305 306 305 305 306 307 306 307 308 309
253 255 257 260 264 266 268 270 272 275 278 279 281 282 284 283 284 285 287 286 285 288 289 290 293 295 297 299 300 300 302 304 305 306 307 308 310 310 308 308 308 307 307 307
256 259 258 260 263 266 267 268 271 275 278 279 281 283 285 284 285 285 286 286 288 290 290 292 296 297 298 298 299 302 305 306 307 308 308 308 308 309 309 307 306 305 305 306
255 257 258 261 263 266 268 269 271 275 277 279 280 281 283 283 285 287 289 289 290 291 293 294 297 297 295 296 298 300 303 304 305 306 307 307 307 307 306 306 306 306 305 306
254 257 259 262 265 266 269 270 272 274 276 279 280 280 281 283 285 285 287 289 289 290 293 295 296 297 296 297 299 300 302 304 305 305 305 306 306 305 305 305 306 306 306 307
256 257 259 261 263 266 269 270 272 274 277 277 278 278 279 282 286 286 286 287 289 292 294 296 297 299 299 300 300 300 302 303 304 305 305 305 305 304 304 304 306 306 308 308
256 258 259 261 263 265 267 269 270 273 275 277 278 279 280 282 285 287 288 288 290 293 294 294 296 299 300 300 302 302 303 304 304 304 304 304 304 304 304 305 306 306 308 309
256 257 260 262 264 265 266 268 270 272 274 276 278 279 280 282 284 286 287 289 291 292 292 294 297 299 300 300 301 302 304 305 305 305 304 304 304 303 303 305 306 307 309 310
256 259 260 262 264 264 265 266 269 272 273 275 276 277 279 281 283 284 285 287 289 291 293 294 296 298 298 299 300 302 304 305 304 304 304 305 305 305 305 306 307 308 308 309
257 260 261 262 262 264 265 267 269 272 273 274 274 275 277 280 283 284 285 286 288 289 292 294 295 296 298 299 300 301 304 304 302 303 305 306 306 307 307 307 307 307 308 309
257 259 260 261 261 264 266 268 270 271 271 272 273 274 277 279 281 283 283 284 287 290 294 294 294 295 296 298 299 301 303 304 304 304 305 307 307 308 309 308 307 306 306 308
255 256 258 260 262 265 267 268 269 270 271 272 271 273 275 277 281 283 284 286 288 290 291 293 294 294 296 297 297 298 300 302 303 304 306 306 307 308 309 308 307 309 310 310
252 254 257 260 263 265 267 268 268 269 270 271 271 272 274 277 280 283 286 288 288 288 289 290 291 293 295 297 298 298 298 299 301 302 303 304 306 308 309 310 310 311 312 312
253 255 258 261 263 264 265 266 268 268 269 270 272 273 274 276 278 281 284 287 288 288 289 290 290 291 293 296 299 300 299 299 301 302 301 303 305 307 309 310 311 312 312 312
255 257 258 260 261 262 262 263 265 266 267 268 271 274 275 277 279 281 284 286 287 288 289 291 291 291 292 295 297 298 298 299 301 301 301 303 305 307 310 310 311 312 312 312
255 257 258 259 261 262 262 263 264 265 267 268 270 272 274 277 279 281 283 286 287 286 288 290 291 292 293 295 297 297 297 299 300 301 303 303 304 307 310 311 312 313 313 311
256 257 260 261 263 264 262 264 266 268 269 270 270 273 276 278 280 282 283 285 286 286 286 287 290 292 293 294 296 298 299 300 300 301 303 305 306 308 310 313 313 313 313 313
256 257 259 261 264 265 264 264 266 267 269 270 272 275 277 278 280 283 284 283 284 285 286 286 288 290 291 292 294 296 297 299 300 301 303 305 307 308 310 311 311 311 310 312
Height
5889 5890 5892 5892 5892 5893 5894 5894 5894 5893 5890 5889 5886 5886 5883 5881 5880 5879 5878 5875 5872 5868 5868 5867 5866 5864 5862 5860 5858 5856 5853 5851 5849 5846 5844 5842 5839 5837 5834 5832 5829 5827 5824 5822
5884 5885 5886 5887 5887 5889 5890 5890 5890 5888 5887 5885 5883 5881 5879 5877 5876 5875 5874 5872 5869 5865 5863 5863 5861 5859 5857 5855 5853 5851 5849 5847 5844 5842 5839 5837 5835 5832 5829 5827 5824 5822 5819 5816
5878 5880 5881 5882 5883 5884 5885 5885 5885 5883 5882 5880 5877 5876 5874 5873 5871 5870 5869 5867 5866 5863 5861 5859 5857 5855 5851 5849 5848 5846 5844 5841 5839 5837 5834 5832 5829 5827 5824 5822 5819 5816 5814 5810
5873 5875 5876 5879 5878 5879 5879 5879 5879 5878 5876 5875 5873 5871 5870 5868 5866 5865 5863 5862 5861 5859 5856 5854 5851 5850 5847 5845 5843 5841 5838 5836 5834 5831 5829 5826 5824 5821 5819 5816 5813 5810 5808 5804
5868 5869 5870 5873 5873 5873 5873 5873 5873 5872 5871 5870 5868 5866 5865 5863 5861 5860 5858 5857 5855 5853 5851 5848 5846 5844 5842 5840 5838 5835 5833 5830 5828 5826 5823 5820 5818 5815 5812 5810 5807 5804 5801 5798
5863 5864 5865 5868 5867 5867 5869 5867 5867 5866 5866 5864 5862 5861 5859 5858 5856 5854 5853 5851 5849 5848 5846 5843 5841 5839 5837 5834 5832 5830 5827 5825 5822 5820 5817 5814 5811 5809 5806 5803 5800 5797 5795 5792
5857 5858 5860 5861 5861 5863 5864 5862 5861 5860 5859 5858 5856 5855 5854 5852 5850 5849 5847 5845 5844 5842 5840 5838 5835 5833 5831 5828 5826 5824 5821 5819 5816 5813 5810 5807 5805 5802 5799 5796 5794 5791 5788 5785
5851 5852 5855 5854 5855 5856 5855 5854 5854 5854 5853 5852 5851 5849 5847 5846 5844 5843 5841 5839 5837 5835 5834 5832 5829 5827 5825 5822 5820 5818 5815 5813 5810 5807 5803 5800 5798 5795 5792 5790 5787 5784 5781 5779
5846 5847 5847 5847 5848 5848 5848 5848 5848 5847 5847 5846 5844 5843 5841 5840 5838 5837 5835 5833 5831 5828 5827 5825 5823 5821 5819 5816 5813 5811 5809 5806 5803 5800 5797 5794 5791 5788 5786 5783 5780 5777 5775 5772
5838 5839 5839 5840 5841 5841 5841 5841 5841 5841 5840 5839 5838 5836 5835 5833 5832 5830 5829 5827 5825 5823 5821 5819 5817 5815 5812 5810 5807 5804 5802 5799 5797 5794 5791 5788 5785 5782 5779 5776 5773 5771 5768 5765
5830 5832 5832 5833 5834 5834 5835 5834 5834 5834 5832 5832 5831 5830 5828 5826 5824 5823 5821 5819 5818 5817 5815 5813 5811 5809 5806 5803 5801 5798 5795 5792 5790 5787 5784 5781 5779 5776 5773 5770 5767 5764 5762 5759
5823 5824 5825 5826 5826 5827 5827 5827 5827 5826 5825 5825 5824 5823 5821 5819 5817 5816 5815 5813 5811 5810 5808 5806 5804 5802 5800 5797 5794 5792 5789 5786 5784 5781 5778 5775 5772 5769 5766 5764 5761 5758 5755 5752
5815 5815 5817 5818 5819 5819 5820 5820 5820 5819 5819 5818 5817 5815 5814 5813 5812 5810 5808 5807 5805 5803 5802 5800 5798 5795 5793 5791 5788 5785 5783 5780 5777 5775 5772 5769 5766 5763 5760 5757 5754 5751 5749 5746
5807 5809 5810 5811 5811 5812 5813 5813 5812 5812 5811 5810 5810 5809 5808 5806 5805 5803 5801 5800 5798 5796 5795 5793 5791 5789 5787 5784 5781 5778 5776 5773 5770 5768 5764 5761 5759 5756 5753 5750 5747 5744 5741 5738
5800 5801 5803 5803 5804 5805 5805 5805 5805 5804 5803 5803 5802 5801 5801 5799 5798 5796 5793 5792 5791 5789 5788 5786 5784 5782 5779 5777 5774 5771 5769 5766 5763 5760 5757 5754 5751 5748 5745 5742 5740 5737 5734 5731
5792 5793 5794 5795 5796 5797 5797 5797 5797 5796 5796 5795 5794 5794 5793 5792 5791 5789 5787 5786 5784 5783 5781 5779 5777 5775 5772 5770 5767 5764 5762 5759 5756 5753 5750 5747 5744 5741 5738 5735 5732 5729 5726 5723
5783 5784 5786 5787 5788 5789 5789 5789 5789 5789 5788 5788 5787 5786 5785 5784 5783 5782 5780 5779 5777 5775 5774 5772 5770 5768 5765 5763 5760 5757 5754 5751 5749 5745 5742 5739 5736 5733 5730 5727 5724 5721 5718 5715
5776 5777 5778 5779 5780 5780 5781 5781 5781 5781 5781 5780 5780 5779 5777 5776 5775 5774 5773 5771 5770 5768 5766 5764 5763 5761 5758 5756 5753 5749 5746 5744 5741 5738 5735 5732 5729 5726 5723 5720 5717 5713 5710 5707
5768 5769 5770 5771 5772 5772 5773 5773 5773 5773 5772 5772 5772 5771 5770 5769 5768 5767 5765 5764 5762 5761 5759 5757 5755 5753 5751 5748 5746 5743 5740 5737 5734 5731 5728 5725 5722 5718 5715 5712 5709 5706 5703 5699
5760 5761 5762 5763 5764 5764 5764 5765 5765 5765 5764 5764 5764 5763 5763 5762 5760 5759 5757 5756 5755 5753 5751 5749 5748 5746 5743 5741 5738 5735 5733 5729 5726 5724 5721 5718 5715 5712 5708 5705 5702 5699 5695 5692
5751 5752 5753 5755 5755 5756 5756 5756 5757 5756 5756 5756 5755 5755 5755 5754 5753 5751 5750 5749 5748 5746 5744 5742 5740 5738 5736 5733 5731 5728 5725 5723 5720 5717 5714 5711 5708 5705 5702 5698 5695 5692 5688 5685
5743 5744 5746 5747 5747 5748 5748 5748 5748 5748 5748 5748 5747 5747 5747 5746 5745 5744 5743 5741 5740 5738 5736 5734 5733 5730 5728 5726 5723 5721 5718 5715 5713 5710 5707 5705 5702 5698 5695 5692 5688 5685 5682 5678
5735 5737 5738 5739 5739 5740 5740 5740 5740 5740 5740 5740 5740 5740 5739 5738 5737 5736 5735 5734 5732 5730 5728 5727 5725 5722 5720 5718 5716 5714 5711 5708 5706 5703 5700 5698 5695 5692 5688 5685 5682 5679 5675 5672
5728 5729 5730 5731 5731 5731 5732 5732 5732 5732 5732 5732 5732 5732 5731 5730 5729 5728 5727 5725 5724 5722 5720 5719 5717 5715 5713 5711 5709 5707 5704 5702 5699 5696 5693 5691 5688 5685 5682 5679 5676 5673 5669 5666
5720 5721 5722 5722 5723 5723 5724 5724 5724 5724 5724 5724 5724 5723 5723 5722 5721 5720 5718 5717 5715 5714 5712 5711 5709 5707 5705 5704 5702 5699 5697 5695 5692 5690 5687 5685 5682 5679 5676 5673 5670 5666 5663 5659
5713 5714 5714 5715 5715 5715 5716 5716 5716 5716 5716 5716 5716 5715 5714 5713 5712 5711 5710 5708 5706 5705 5704 5702 5701 5700 5698 5696 5694 5692 5690 5688 5685 5683 5681 5678 5675 5672 5669 5667 5664 5660 5657 5653
5705 5706 5707 5707 5707 5708 5708 5708 5708 5708 5708 5708 5707 5706 5705 5704 5703 5702 5701 5700 5698 5697 5696 5695 5694 5693 5691 5689 5688 5686 5684 5681 5679 5677 5674 5672 5669 5666 5663 5661 5657 5654 5651 5648